Location: Csermura
(46.2500°N, 22.5500°E)
Time: 12:47:21
(UTC+00:00)

Daily predictions for brighter satellites

Satellite Brightness Start Highest point End
(mag) Time Altitude Azimuth Time Altitude Azimuth Time Altitude Azimuth
CZ-2C R/B 4.3 18:14:25 10° NNE 18:18:44 37° E 18:22:56 10° SSE
Lacrosse 5 3.8 18:15:15 10° NW 18:19:25 24° N 18:23:32 10° ENE
MOS 1 Rocket 4.0 18:14:04 10° N 18:19:32 75° WNW 18:24:53 10° SSW
SL-8 Rocket 4.2 18:17:03 10° SSW 18:23:13 78° W 18:29:29 10° N
Shenzhou-11 Module 2.2 18:21:11 10° WSW 18:23:23 34° S 18:25:34 10° ESE
Meteor 2-6 Rocket 4.3 18:19:30 10° N 18:24:57 61° ENE 18:30:31 10° SSE
Cosmos 1818 4.1 18:20:58 10° NNW 18:26:16 47° NE 18:31:29 10° ESE
Cosmos 2082 Rocket 3.5 18:22:53 10° SE 18:26:45 19° E 18:30:36 10° ENE
Sich 1 4.0 18:23:18 10° SSE 18:27:05 28° E 18:30:53 10° NNE
Cosmos 1862 3.8 18:23:36 10° SSE 18:27:23 41° E 18:31:13 10° NNE
SJ-6B 3.3 18:25:59 10° S 18:30:03 66° W 18:34:03 10° NNW
Cosmos 1500 Rocket 3.6 18:32:43 10° S 18:37:01 85° W 18:41:23 10° N
SL-08 R/B 4.5 18:31:21 10° S 18:37:32 73° E 18:43:41 10° NNE
Ariane Rocket 3.9 18:32:53 10° S 18:37:48 51° W 18:42:44 10° NNW
USA 234 3.8 18:32:25 10° E 18:38:43 52° NNE 18:45:01 10° NW
Resurs 1-3 3.6 18:37:38 10° SSE 18:42:01 84° ENE 18:46:26 10° NNW
CZ-2C R/B 2.7 18:38:08 10° NNE 18:43:20 82° WNW 18:48:33 10° SSW
Cosmos 407 Rocket 4.1 18:39:10 10° SSE 18:44:01 38° ESE 18:48:53 10° NE
Terra 3.9 18:43:30 10° E 18:45:26 12° ENE 18:47:21 10° NNE
Meteor 1-4 Rocket 4.0 18:43:32 10° NNE 18:46:15 21° ENE 18:48:15 13° ESE
SL-8 R/B 4.0 18:41:54 10° WNW 18:46:41 61° SSW 18:50:51 13° SE
USA 186 4.0 18:46:23 10° SW 18:47:44 14° W 18:49:06 10° WNW
Cosmos 1666 Rocket 4.4 18:44:42 10° SSE 18:48:29 30° E 18:52:17 10° NNE
Meteor 1-27 Rocket 4.1 18:43:02 10° N 18:48:48 51° ENE 18:54:27 11° SSE
Meteor 1-10 Rocket 4.3 18:43:39 10° N 18:49:20 80° E 18:55:06 10° SSE
H-2A R/B 4.5 18:53:02 10° SW 18:56:54 21° W 19:00:45 10° NW
SPOT 5 4.3 18:56:40 12° E 18:59:08 19° ENE 19:02:09 10° NNE
Cosmos 1805 Rocket 3.5 18:55:42 10° S 19:00:06 83° E 19:04:36 10° N
Cosmos 1980 Rocket 3.0 18:55:51 10° NNW 19:01:10 39° NE 19:05:19 16° ESE
ERBS 4.3 19:00:04 10° W 19:03:03 30° NNW 19:06:02 10° NE
SPOT 1/Viking Rocket 4.2 18:59:15 15° SE 19:03:09 39° ENE 19:07:59 10° N
Cosmos 972 4.4 18:59:26 10° NNW 19:04:42 82° ENE 19:08:59 14° SSE
Cosmos 1140 Rocket 3.7 19:04:49 10° S 19:09:49 48° ESE 19:14:52 10° NNE
ATLAS 5 CENTAUR R/B 2.8 19:04:13 10° NW 19:09:54 60° SW 19:15:45 13° SSE
SL-4 R/B 2.1 19:07:06 10° SW 19:10:54 44° SE 19:14:27 10° ENE
Genesis I 4.3 19:10:03 10° NNW 19:13:36 33° NE 19:15:51 18° E
Cosmos 405 Rocket 4.5 19:14:15 15° E 19:14:20 15° E 19:16:30 10° NE
Cosmos 1833 Rocket 2.6 19:11:30 10° SSW 19:17:05 77° ESE 19:22:44 10° NNE
Cosmos 1697 Rocket 2.7 19:11:27 10° NNW 19:17:07 86° ENE 19:21:20 18° SSE
CENTAUR R/B 3.7 19:17:41 17° ESE 19:18:20 17° ESE 19:22:26 10° ENE
SPOT 3 Rocket 4.5 19:15:45 10° S 19:20:46 47° W 19:25:48 10° NNW
Cosmos 389 Rocket 3.6 19:17:47 10° NNW 19:21:03 41° W 19:24:19 10° SSW
Cosmos 1633 Rocket 3.1 19:18:04 14° S 19:21:44 57° E 19:26:05 10° NNE
Cosmos 1812 3.4 19:19:11 10° NNW 19:22:56 51° W 19:26:34 11° S
Cosmos 1867 3.9 19:19:24 10° S 19:24:28 41° ESE 19:29:34 10° NE
Resurs 01 Rocket 2.6 19:27:42 10° S 19:31:55 45° W 19:36:11 10° NNW
Cosmos 1707 Rocket 3.7 19:28:07 10° NNW 19:32:27 70° W 19:35:43 17° S
Landsat 7 3.8 19:30:06 21° SSE 19:33:18 85° ENE 19:38:06 10° NNW
Cosmos 676 Rocket 4.1 19:33:52 13° S 19:38:25 54° ESE 19:43:37 10° NNE
Cosmos 1934 Rocket 4.0 19:32:33 10° S 19:38:54 83° E 19:45:19 10° N
Meteor 1-25 Rocket 4.4 19:35:38 22° SSE 19:38:55 49° E 19:44:17 10° NNE
FALCON 9 DEB 3.2 19:35:36 10° SW 19:39:01 54° SE 19:41:53 14° ENE
Cosmos 192 4.5 19:36:48 10° NNW 19:41:41 61° ENE 19:43:58 30° SE
Aureole 1 Rocket 4.3 19:35:11 10° S 19:41:47 71° ESE 19:49:56 10° NNE
deb Kosmos-1763 3.9 19:40:15 26° S 19:42:10 66° ESE 19:45:48 10° NNE
IGS 5A 3.6 19:41:07 24° S 19:43:31 73° WSW 19:47:40 10° NNW
NOSS 3-2 (A) 3.6 19:38:14 10° S 19:43:32 45° ESE 19:49:32 10° NE
Cosmos 2360 4.3 19:38:21 10° NNW 19:44:06 78° WSW 19:47:32 25° SSE
Cosmos 1470 Rocket 3.7 19:42:24 30° SSE 19:44:22 55° E 19:48:41 10° NNE
USA 267 3.4 19:39:40 10° NE 19:46:13 78° NNW 19:52:46 10° WSW
NOSS 3-2 (C) 4.0 19:48:31 29° SE 19:49:36 31° ESE 19:54:59 10° NE
GP-B 3.1 19:46:09 10° N 19:50:37 85° W 19:53:14 25° S
OPS 6432 4.5 19:48:29 10° SW 19:52:48 83° SE 19:56:06 10° NE
Meteor 2-20 Rocket 4.5 19:50:15 10° N 19:56:27 82° W 20:00:27 23° S
Cosmos 921 Rocket 3.1 19:52:45 10° NNW 19:56:57 59° ENE 19:58:03 43° SE
Shenzhou-11 Module 4.3 19:55:14 10° WSW 19:55:30 12° WSW 19:55:30 12° WSW
ERS-1 Rocket 2.9 19:56:08 33° SSE 19:58:26 79° ENE 20:03:29 10° NNW
Cosmos 1862 Rocket 3.7 19:54:31 10° NNW 19:59:01 76° W 20:01:01 32° S
SL-16 R/B 3.2 19:54:43 10° NNW 19:59:55 35° NE 20:02:26 24° E
Lacrosse 5 2.8 19:58:38 10° NW 20:03:28 42° NNE 20:06:21 22° E
Cosmos 468 Rocket 4.4 19:58:35 10° NNW 20:03:46 50° ENE 20:05:37 34° ESE
Cosmos 2369 4.5 19:59:18 10° NW 20:04:47 47° WSW 20:08:05 23° S
SAR-Lupe-2 3.4 20:03:36 10° NNE 20:07:12 75° ESE 20:07:36 65° SSE
Cosmos 2082 Rocket 2.4 20:04:31 10° SSW 20:10:12 72° WNW 20:15:54 10° NNE
BREEZE-M DEB (TANK) 3.2 20:08:16 10° WNW 20:09:55 34° NNW 20:09:55 34° NNW
Cosmos 1954 Rocket 4.1 20:06:50 12° SSW 20:11:46 82° WNW 20:17:08 10° NNE
Cosmos 2278 4.1 20:08:32 10° NNW 20:14:09 58° WSW 20:16:44 31° S
Spot 2 Rocket 4.4 20:11:25 20° SSW 20:14:36 42° W 20:19:28 10° NNW
Meteor 1-4 Rocket 4.3 20:18:22 10° NW 20:21:14 24° W 20:22:27 20° WSW
CARTOSAT-1 3.9 20:20:05 40° SSW 20:21:23 60° W 20:25:41 10° NNW
USA 234 3.3 20:18:45 35° SSE 20:21:38 66° SW 20:28:09 10° NW
Cosmos 1184 Rocket 4.2 20:21:02 27° WSW 20:22:12 36° WNW 20:25:17 10° N
Terra 1.7 20:21:08 50° SSE 20:22:24 84° ENE 20:27:12 10° NNW
Cosmos 2322 Rocket 2.9 20:17:01 10° NNW 20:22:25 42° NE 20:24:25 31° E
Cosmos 2100 Rocket 4.3 20:20:52 38° SE 20:22:33 48° E 20:28:25 10° NNE
Cosmos 1933 Rocket 3.6 20:24:16 44° SSW 20:25:36 78° W 20:30:03 10° N
Cosmos 1605 Rocket 4.2 20:21:08 19° SSW 20:25:38 69° W 20:31:44 10° N
Cosmos 1238 Rocket 3.1 20:28:02 44° WNW 20:28:02 44° WNW 20:30:51 10° N
Okean 1 3.4 20:26:57 10° NNW 20:30:58 71° W 20:31:27 63° SW
Cosmos 1602 3.9 20:31:38 58° SW 20:32:12 68° W 20:36:08 10° N
ATLAS 3B R/B 3.8 20:34:00 23° E 20:34:00 23° E 20:38:01 10° ENE
Cosmos 1437 Rocket 2.6 20:31:45 10° N 20:35:27 82° NNE 20:35:27 82° NNE
Cosmos 1869 Rocket 3.8 20:35:53 53° E 20:35:53 53° E 20:40:07 10° NNE
Cosmos 2360 Rocket 3.4 20:31:30 10° N 20:36:33 31° NE 20:38:35 25° E
SPOT 5 3.2 20:35:54 40° SW 20:36:54 49° W 20:41:07 10° NNW
Cosmos 2173 Rocket 4.0 20:36:35 45° SE 20:38:11 59° E 20:44:12 10° NNE
USA 238 DEB 3.6 20:32:41 10° SW 20:39:21 86° NW 20:46:18 10° NE
USA 238 3.6 20:32:49 10° SW 20:39:27 87° NW 20:46:24 10° NE
Meteor 1-19 Rocket 4.2 20:35:13 10° NNW 20:40:38 75° W 20:42:13 47° S
Geosat 4.4 20:40:38 43° E 20:41:47 53° NE 20:46:41 10° NNW
Iridium 4 Rocket 3.3 20:41:58 55° E 20:41:58 55° E 20:46:01 10° NNE
JB-3 4.3 20:40:59 10° NNE 20:44:51 82° NE 20:44:51 82° NE
Cosmos 1980 Rocket 3.2 20:39:58 10° NW 20:45:08 37° WSW 20:47:05 29° SW
Cosmos 2242 Rocket 4.2 20:42:21 10° NNW 20:46:39 48° W 20:47:29 42° SW
Cosmos 1703 Rocket 3.6 20:42:20 10° NNW 20:46:41 66° W 20:47:05 61° SW
Meteor 1-14 Rocket 4.4 20:46:52 38° SSW 20:49:16 77° WNW 20:55:15 10° N
Cosmos 1500 3.8 20:50:18 48° NNE 20:50:18 48° NNE 20:53:10 10° NNE
Cosmos 405 Rocket 3.8 20:49:22 35° W 20:49:58 38° WNW 20:53:28 10° N
Cosmos 1763 Rocket 3.5 20:44:50 10° NNW 20:50:11 81° WSW 20:51:08 61° S
SL-4 R/B 2.6 20:46:47 10° W 20:50:30 49° NNW 20:51:34 36° NNE
ALOS 2 4.3 20:50:20 21° ENE 20:50:33 21° ENE 20:53:52 10° NNE
BREEZE-M DEB (TANK) 3.7 20:48:01 10° WNW 20:51:36 67° N 21:04:03 10° E
MOS 1-B Rocket 3.9 20:50:01 10° NNE 20:55:37 57° E 20:56:13 54° SE
Cosmos 2016 Rocket 4.2 20:55:14 49° SE 20:56:25 56° E 21:02:36 10° NNE
Cosmos 2333 Rocket 4.1 20:52:04 10° N 20:56:31 22° NE 20:59:21 16° E
Cosmos 2061 Rocket 4.1 20:56:26 50° SE 20:57:28 56° E 21:03:30 10° NNE
Cosmos 1536 4.4 20:58:57 25° NE 20:58:57 25° NE 21:01:11 10° NNE
Meteor 1-5 Rocket 4.3 20:58:36 57° SSE 20:59:46 72° E 21:05:43 10° NNE
Cosmos 1459 Rocket 3.9 20:58:06 50° S 20:59:53 84° E 21:06:16 10° N
Meteor 1-13 Rocket 4.2 20:54:42 10° N 21:00:12 63° ENE 21:00:56 57° ESE
Cosmos 1666 4.2 21:02:40 27° NE 21:02:40 27° NE 21:04:44 10° NNE
CENTAUR R/B 2.4 21:04:45 33° SW 21:07:46 90° NW 21:14:54 10° NE
Okean 1-7 3.8 21:04:10 10° NNW 21:08:17 43° W 21:08:30 42° W
Cosmos 2221 Rocket 3.8 21:04:53 10° N 21:09:01 63° NE 21:09:01 63° NE
Cosmos 1733 Rocket 4.1 21:13:55 36° ENE 21:13:55 36° ENE 21:17:04 10° NNE
Okean 3 3.6 21:10:08 10° N 21:13:59 71° N 21:13:59 71° N
Cosmos 1802 Rocket 3.9 21:13:52 55° S 21:15:28 89° E 21:21:52 10° N
Cosmos 1850 Rocket 4.5 21:14:18 38° SW 21:16:08 58° WNW 21:21:22 10° NNE
Thor Agena Rocket 3.6 21:11:38 10° NNE 21:16:25 58° E 21:16:25 58° E
Meteor 2-4 Rocket 3.9 21:12:21 10° NNW 21:17:56 60° W 21:18:53 52° SW
SL-27 R/B 4.2 21:19:37 29° N 21:19:37 29° N 21:21:30 10° NNE
ATLAS 5 CENTAUR R/B 2.4 21:20:02 10° NW 21:23:03 78° NE 21:23:25 72° E
Cosmos 44 3.3 21:18:11 10° NW 21:23:07 82° NE 21:23:09 82° ENE
Cosmos 2346 Rocket 4.3 21:19:54 10° N 21:25:59 87° W 21:26:55 66° S
Spot 4 3.7 21:27:26 85° N 21:27:26 85° N 21:32:09 10° NNW
Cosmos 2233 Rocket 4.2 21:29:56 52° ESE 21:30:31 54° E 21:36:40 10° NNE
BREEZE-M DEB (TANK) 4.1 21:20:14 10° W 21:33:49 88° SSW 21:35:19 50° E
NOSS 3-2 (C) 4.0 21:35:51 19° WSW 21:40:03 56° NW 21:46:37 10° NE
Cosmos 1816 Rocket 4.3 21:34:46 10° N 21:41:05 83° W 21:41:57 67° SSW
Cosmos 841 Rocket 3.8 21:36:59 10° NNW 21:42:00 54° WSW 21:42:00 54° WSW
Cosmos 540 Rocket 3.8 21:38:29 10° NNW 21:43:22 54° W 21:43:22 54° W
SL-16 R/B 2.8 21:38:48 10° NW 21:44:05 42° WSW 21:44:17 41° WSW
Cosmos 1833 4.2 21:46:48 64° E 21:46:48 64° E 21:52:03 10° NNE
Lacrosse 5 2.5 21:41:37 10° WNW 21:45:32 45° W 21:45:32 45° W
Cosmos 2322 4.0 21:41:19 10° NNW 21:46:54 54° ENE 21:47:36 51° E
Cosmos 1378 Rocket 4.2 21:48:08 10° N 21:51:46 53° NNE 21:51:46 53° NNE
Tsikada Rocket 3.9 21:47:43 10° NNW 21:54:06 76° W 21:54:55 66° SSW
Cosmos 2219 Rocket 2.9 21:50:09 10° NNW 21:55:37 45° NE 21:56:38 41° E
Cosmos 1814 Rocket 4.5 21:50:49 10° NNW 21:55:32 50° W 21:55:32 50° W
Cosmos 2084 Rocket 4.3 21:59:01 47° NNW 21:59:01 47° NNW 22:02:52 10° NNE
Cosmos 2237 4.3 21:55:01 10° NNW 22:00:34 63° WSW 22:00:34 63° WSW
Terra 4.2 22:00:02 12° W 22:00:47 12° W 22:02:34 10° WNW
Cosmos 2333 4.3 21:55:33 10° NNW 22:01:21 69° ENE 22:01:49 66° E
Cosmos 1975 Rocket 4.5 22:01:46 10° N 22:05:17 31° ENE 22:05:17 31° ENE
Cosmos 2322 Rocket 3.2 22:01:17 10° NW 22:06:13 34° WSW 22:06:13 34° WSW
Meteor 1-11 Rocket 4.3 22:09:09 43° W 22:10:04 47° WNW 22:15:37 10° N
Cosmos 1486 Rocket 4.2 22:11:52 64° ENE 22:11:52 64° ENE 22:16:28 10° NNE
Helios 1A 4.0 22:13:11 44° NNE 22:13:11 44° NNE 22:16:24 10° N
Cosmos 2360 Rocket 2.7 22:15:19 10° NW 22:20:19 47° W 22:20:19 47° W
COSMOS 2428 2.9 22:16:22 10° NNW 22:22:04 63° ENE 22:22:37 60° E
ATLAS 3B R/B 2.7 22:21:12 52° WSW 22:22:54 74° NW 22:29:36 10° NE
Cosmos 489 Rocket 4.3 22:20:02 10° NNW 22:26:24 87° ENE 22:26:57 76° SE
ALOS 2 3.8 22:27:44 36° WNW 22:27:44 36° WNW 22:30:50 10° NNW
Meteor 2-9 Rocket 4.4 22:31:37 58° E 22:31:37 58° E 22:37:02 10° NNE
Cosmos 2297 Rocket 4.0 22:34:19 19° E 22:34:19 19° E 22:37:41 10° ENE
Cosmos 1743 4.3 22:38:17 33° NNW 22:38:17 33° NNW 22:40:44 10° N
Cosmos 2333 Rocket 2.1 22:35:41 10° NNW 22:41:19 78° W 22:41:19 78° W
Lacrosse 4 Rocket 2.5 22:45:23 44° N 22:45:23 44° N 22:48:35 10° NNE
NOSS 0 Rocket 4.3 22:39:34 10° NNW 22:45:46 61° ENE 22:47:14 48° ESE
Cosmos 2237 Rocket 3.2 22:40:27 10° NNW 22:45:47 40° NE 22:47:32 32° E
Cosmos 1025 Rocket 4.4 22:44:56 10° N 22:48:18 31° ENE 22:48:18 31° ENE
Cosmos 44 Rocket 3.5 22:53:02 10° NW 22:57:31 70° N 22:57:31 70° N
Cosmos 968 Rocket 3.9 22:59:00 53° WNW 22:59:00 53° WNW 23:04:03 10° NNE
CENTAUR R/B 4.4 22:53:51 10° W 22:59:28 30° NNW 23:05:55 10° NNE
Cosmos 1975 4.1 23:02:22 37° NNW 23:02:22 37° NNW 23:05:05 10° N
Cosmos 1354 Rocket 4.0 23:07:09 76° NW 23:07:09 76° NW 23:12:24 10° NNE
Resurs 1-4 Rocket 3.8 23:03:47 10° NE 23:07:49 22° E 23:08:21 21° E
Cosmos 1782 Rocket 4.5 23:10:37 44° NW 23:10:37 44° NW 23:13:58 10° N
Cosmos 1464 Rocket 4.0 23:15:36 61° WSW 23:16:18 65° W 23:22:30 10° N
Cosmos 1707 4.0 23:13:37 10° N 23:16:13 40° N 23:16:13 40° N
Helios 1B rocket 3.2 23:18:43 10° NNE 23:21:48 50° N 23:21:48 50° N
Cosmos 2227 Rocket 2.9 23:22:42 39° ESE 23:22:51 39° ESE 23:28:05 10° NE
Cosmos 2344 4.5 23:13:35 10° NW 23:23:00 78° NE 23:36:14 10° SE
CZ-4 R/B 4.0 23:18:11 10° N 23:23:00 69° WNW 23:23:00 69° WNW
Meteor 1-12 Rocket 4.2 23:28:42 73° S 23:29:18 85° E 23:35:22 10° NNE
Cosmos 1674 4.3 23:25:56 10° N 23:28:43 30° NE 23:28:43 30° NE
Cosmos 1777 Rocket 3.9 23:35:45 76° ESE 23:35:47 76° ESE 23:41:06 10° NNE
Nadezhda 4 Rocket 4.0 23:31:16 10° NNW 23:37:28 61° W 23:38:04 58° WSW
Cosmos 2219 Rocket 3.4 23:34:26 10° NW 23:38:19 29° W 23:38:19 29° W
MOZ.5/SAFIR/RUBIN 5/SL-8 4.0 23:39:37 63° E 23:39:53 64° ENE 23:44:36 10° N
Okean 2 Rocket 3.6 23:45:22 54° NW 23:45:22 54° NW 23:49:15 10° N
Cosmos 2034 Rocket 4.2 23:43:53 51° WSW 23:44:50 56° WNW 23:51:03 10° N
SL-16 R/B 2.8 23:46:16 38° SE 23:48:42 67° ENE 23:54:54 10° N
ADEOS II 3.9 23:47:36 10° NE 23:51:33 21° E 23:53:32 17° ESE
Cosmos 1092 Rocket 3.9 23:45:30 10° NNW 23:51:45 75° W 23:52:45 62° SSW
Cosmos 1300 Rocket 4.2 23:52:28 47° NW 23:52:28 47° NW 23:56:03 10° N
GEOS 3 Rocket 3.5 23:47:17 10° NE 23:52:44 81° SE 23:53:18 71° SSW
CZ-2D R/B 2.6 23:48:32 10° NNE 23:53:55 52° E 23:54:54 46° SE
Meteor 1-16 4.5 23:53:40 74° SSW 23:54:11 86° W 23:59:45 10° N
